| time (UTC) | temp F | wind direction | speed MPH | gust MPH | rain 1hr in | rain 24hr in | rain mn in | humidity % | barometer mb |
| 20260510082859 | 69 | 57 | 0.0 | 0.0 | 0.00 | 0.00 | 0.00 | 94 | 1027.1 |
| 20260510082357 | 69 | 57 | 0.0 | 1.0 | 0.00 | 0.00 | 0.00 | 94 | 1027.0 |
| 20260510081855 | 69 | 68 | 0.0 | 0.0 | 0.00 | 0.00 | 0.00 | 94 | 1027.1 |
| 20260510081351 | 69 | 68 | 0.0 | 0.0 | 0.00 | 0.00 | 0.00 | 94 | 1027.1 |
| 20260510080849 | 69 | 68 | 0.0 | 0.0 | 0.00 | 0.00 | 0.00 | 94 | 1027.2 |
| 20260510080342 | 69 | 66 | 0.0 | 0.0 | 0.00 | 0.00 | 0.00 | 93 | 1027.2 |
| 20260510075840 | 69 | 66 | 0.0 | 0.0 | 0.00 | 0.00 | 0.00 | 94 | 1027.2 |
| 20260510075337 | 69 | 51 | 0.0 | 0.0 | 0.00 | 0.00 | 0.00 | 93 | 1027.3 |
| 20260510074834 | 69 | 51 | 0.0 | 0.0 | 0.00 | 0.00 | 0.00 | 93 | 1027.2 |
| 20260510074331 | 69 | 51 | 0.0 | 1.0 | 0.00 | 0.00 | 0.00 | 93 | 1027.0 |
| 20260510073827 | 69 | 59 | 0.0 | 0.0 | 0.00 | 0.00 | 0.00 | 93 | 1027.2 |
| 20260510073323 | 70 | 59 | 0.0 | 0.0 | 0.00 | 0.00 | 0.00 | 93 | 1027.1 |
| 20260510072819 | 70 | 49 | 0.0 | 0.0 | 0.00 | 0.00 | 0.00 | 93 | 1027.1 |
| 20260510072316 | 70 | 49 | 0.0 | 1.0 | 0.00 | 0.00 | 0.00 | 93 | 1027.0 |
| 20260510071813 | 70 | 50 | 0.0 | 1.0 | 0.00 | 0.00 | 0.00 | 93 | 1027.1 |
| 20260510071309 | 71 | 46 | 0.0 | 1.0 | 0.00 | 0.00 | 0.00 | 93 | 1027.2 |
| 20260510070808 | 70 | 44 | 0.0 | 1.0 | 0.00 | 0.00 | 0.00 | 93 | 1027.1 |
| 20260510070305 | 70 | 70 | 0.0 | 1.0 | 0.00 | 0.00 | 0.00 | 93 | 1027.2 |
| 20260510065804 | 70 | 53 | 0.0 | 0.0 | 0.00 | 0.00 | 0.00 | 93 | 1027.2 |
| 20260510065301 | 70 | 53 | 0.0 | 0.0 | 0.00 | 0.00 | 0.00 | 93 | 1027.1 |
| 20260510064758 | 71 | 53 | 0.0 | 0.0 | 0.00 | 0.00 | 0.00 | 93 | 1027.1 |
| 20260510064256 | 71 | 53 | 0.0 | 0.0 | 0.00 | 0.00 | 0.00 | 92 | 1027.1 |
| 20260510063751 | 71 | 53 | 0.0 | 0.0 | 0.00 | 0.00 | 0.00 | 92 | 1027.1 |
| 20260510063248 | 71 | 53 | 0.0 | 0.0 | 0.00 | 0.00 | 0.00 | 92 | 1026.9 |
| 20260510062745 | 71 | 53 | 0.0 | 0.0 | 0.00 | 0.00 | 0.00 | 92 | 1026.9 |
| 20260510062240 | 71 | 53 | 0.0 | 0.0 | 0.00 | 0.00 | 0.00 | 91 | 1026.9 |
| 20260510061736 | 71 | 53 | 0.0 | 0.0 | 0.00 | 0.00 | 0.00 | 90 | 1027.0 |
| 20260510061233 | 71 | 53 | 0.0 | 0.0 | 0.00 | 0.00 | 0.00 | 90 | 1027.0 |
| 20260510060729 | 71 | 53 | 0.0 | 0.0 | 0.00 | 0.00 | 0.00 | 90 | 1027.0 |
| 20260510060226 | 72 | 53 | 0.0 | 0.0 | 0.00 | 0.00 | 0.00 | 89 | 1027.1 |
| 20260510055723 | 72 | 53 | 0.0 | 0.0 | 0.00 | 0.00 | 0.00 | 89 | 1026.9 |
| 20260510055222 | 72 | 52 | 0.0 | 0.0 | 0.00 | 0.00 | 0.00 | 88 | 1027.0 |
| 20260510054721 | 72 | 52 | 0.0 | 0.0 | 0.00 | 0.00 | 0.00 | 88 | 1027.0 |
| 20260510054218 | 73 | 52 | 0.0 | 0.0 | 0.00 | 0.00 | 0.00 | 87 | 1027.1 |
| 20260510053717 | 73 | 52 | 0.0 | 0.0 | 0.00 | 0.00 | 0.00 | 86 | 1027.0 |
| 20260510053214 | 73 | 52 | 0.0 | 0.0 | 0.00 | 0.00 | 0.00 | 86 | 1027.0 |
| 20260510052709 | 73 | 52 | 0.0 | 0.0 | 0.00 | 0.00 | 0.00 | 86 | 1027.0 |
| 20260510052206 | 73 | 57 | 0.0 | 0.0 | 0.00 | 0.00 | 0.00 | 86 | 1027.0 |
| 20260510051701 | 73 | 57 | 0.0 | 0.0 | 0.00 | 0.00 | 0.00 | 87 | 1027.1 |
| 20260510051158 | 73 | 66 | 0.0 | 0.0 | 0.00 | 0.00 | 0.00 | 86 | 1026.9 |
| 20260510050656 | 73 | 66 | 0.0 | 0.0 | 0.00 | 0.00 | 0.00 | 85 | 1027.0 |
| 20260510050153 | 74 | 66 | 0.0 | 0.0 | 0.00 | 0.00 | 0.00 | 85 | 1027.0 |
| 20260510045649 | 74 | 67 | 0.0 | 0.0 | 0.00 | 0.22 | 0.22 | 85 | 1026.9 |
| 20260510045146 | 74 | 67 | 0.0 | 0.0 | 0.00 | 0.22 | 0.22 | 84 | 1026.8 |
| 20260510044642 | 74 | 67 | 0.0 | 0.0 | 0.00 | 0.22 | 0.22 | 84 | 1026.7 |
| 20260510044140 | 74 | 75 | 0.0 | 0.0 | 0.00 | 0.22 | 0.22 | 84 | 1026.8 |
| 20260510043635 | 74 | 58 | 0.0 | 1.0 | 0.00 | 0.22 | 0.22 | 85 | 1026.7 |
| 20260510043132 | 73 | 31 | 1.0 | 1.0 | 0.00 | 0.22 | 0.22 | 86 | 1026.5 |
| 20260510042630 | 73 | 57 | 0.0 | 0.0 | 0.00 | 0.22 | 0.22 | 87 | 1026.7 |
| 20260510042125 | 73 | 56 | 0.0 | 0.0 | 0.00 | 0.22 | 0.22 | 87 | 1026.6 |
| 20260510041623 | 73 | 73 | 0.0 | 0.0 | 0.00 | 0.22 | 0.22 | 87 | 1026.6 |
| 20260510041120 | 73 | 80 | 0.0 | 0.0 | 0.00 | 0.22 | 0.22 | 87 | 1026.6 |
| 20260510040617 | 74 | 68 | 0.0 | 0.0 | 0.00 | 0.22 | 0.22 | 86 | 1026.3 |
| 20260510040113 | 74 | 68 | 0.0 | 0.0 | 0.00 | 0.22 | 0.22 | 86 | 1026.4 |
| 20260510035609 | 74 | 68 | 0.0 | 0.0 | 0.00 | 0.22 | 0.22 | 85 | 1026.4 |
| 20260510035109 | 74 | 69 | 0.0 | 0.0 | 0.00 | 0.22 | 0.22 | 84 | 1026.4 |
| 20260510034607 | 74 | 69 | 0.0 | 0.0 | 0.00 | 0.22 | 0.22 | 84 | 1026.3 |
| 20260510034104 | 75 | 69 | 0.0 | 0.0 | 0.00 | 0.22 | 0.22 | 83 | 1026.2 |
| 20260510033600 | 75 | 69 | 0.0 | 0.0 | 0.00 | 0.22 | 0.22 | 83 | 1026.2 |
| 20260510033058 | 75 | 69 | 0.0 | 0.0 | 0.00 | 0.22 | 0.22 | 82 | 1026.1 |
| 20260510032554 | 76 | 57 | 0.0 | 0.0 | 0.00 | 0.22 | 0.22 | 81 | 1026.1 |
| 20260510032050 | 76 | 57 | 0.0 | 0.0 | 0.00 | 0.22 | 0.22 | 79 | 1026.1 |
| 20260510031550 | 76 | 58 | 0.0 | 1.0 | 0.00 | 0.22 | 0.22 | 79 | 1026.1 |
| 20260510031046 | 76 | 60 | 0.0 | 0.0 | 0.00 | 0.22 | 0.22 | 78 | 1026.0 |
| 20260510030542 | 76 | 60 | 0.0 | 0.0 | 0.00 | 0.22 | 0.22 | 78 | 1025.9 |
| 20260510030039 | 76 | 58 | 0.0 | 0.0 | 0.00 | 0.22 | 0.22 | 78 | 1025.9 |
| 20260510025536 | 77 | 58 | 0.0 | 0.0 | 0.00 | 0.22 | 0.22 | 78 | 1025.8 |
| 20260510025034 | 76 | 46 | 1.0 | 1.0 | 0.00 | 0.22 | 0.22 | 79 | 1025.9 |
| 20260510024530 | 76 | 60 | 0.0 | 0.0 | 0.00 | 0.22 | 0.22 | 78 | 1025.7 |
| 20260510024026 | 77 | 60 | 0.0 | 0.0 | 0.00 | 0.22 | 0.22 | 78 | 1025.6 |
| 20260510023522 | 77 | 60 | 0.0 | 0.0 | 0.00 | 0.22 | 0.22 | 77 | 1025.5 |
| 20260510023020 | 77 | 60 | 0.0 | 0.0 | 0.00 | 0.22 | 0.22 | 77 | 1025.6 |
| 20260510022519 | 77 | 64 | 0.0 | 0.0 | 0.00 | 0.22 | 0.22 | 76 | 1025.5 |
| 20260510022014 | 78 | 64 | 0.0 | 0.0 | 0.00 | 0.22 | 0.22 | 75 | 1025.3 |
| 20260510021511 | 78 | 62 | 0.0 | 0.0 | 0.00 | 0.22 | 0.22 | 74 | 1025.5 |
| 20260510021008 | 78 | 62 | 0.0 | 0.0 | 0.00 | 0.22 | 0.22 | 74 | 1025.4 |
| 20260510020502 | 79 | 64 | 0.0 | 0.0 | 0.00 | 0.22 | 0.22 | 73 | 1025.2 |
| 20260510015958 | 79 | 70 | 0.0 | 0.0 | 0.00 | 0.22 | 0.22 | 72 | 1025.3 |
| 20260510015454 | 79 | 72 | 0.0 | 1.0 | 0.00 | 0.22 | 0.22 | 72 | 1025.2 |
| 20260510014949 | 79 | 72 | 0.0 | 0.0 | 0.00 | 0.22 | 0.22 | 71 | 1025.2 |
| 20260510014447 | 80 | 73 | 0.0 | 1.0 | 0.00 | 0.22 | 0.22 | 71 | 1025.1 |
| 20260510013944 | 80 | 104 | 1.0 | 2.0 | 0.00 | 0.22 | 0.22 | 70 | 1025.2 |
| 20260510013438 | 80 | 70 | 0.0 | 1.0 | 0.00 | 0.22 | 0.22 | 70 | 1025.0 |
| 20260510012934 | 80 | 56 | 1.0 | 1.0 | 0.00 | 0.22 | 0.22 | 70 | 1025.0 |
| 20260510012429 | 81 | 77 | 1.0 | 3.0 | 0.00 | 0.22 | 0.22 | 69 | 1025.0 |
| 20260510011924 | 81 | 43 | 1.0 | 2.0 | 0.00 | 0.22 | 0.22 | 69 | 1025.1 |
| 20260510011419 | 81 | 117 | 1.0 | 2.0 | 0.00 | 0.22 | 0.22 | 70 | 1024.9 |
| 20260510010915 | 81 | 78 | 1.0 | 1.0 | 0.00 | 0.22 | 0.22 | 69 | 1024.9 |
| 20260510010413 | 81 | 67 | 1.0 | 1.0 | 0.00 | 0.22 | 0.22 | 69 | 1024.9 |
| 20260510005910 | 82 | 81 | 0.0 | 1.0 | 0.00 | 0.22 | 0.22 | 69 | 1024.7 |
| 20260510005406 | 82 | 70 | 1.0 | 1.0 | 0.00 | 0.22 | 0.22 | 69 | 1024.7 |
| 20260510004903 | 82 | 69 | 1.0 | 1.0 | 0.00 | 0.22 | 0.22 | 69 | 1024.6 |
| 20260510004401 | 82 | 47 | 1.0 | 2.0 | 0.00 | 0.22 | 0.22 | 69 | 1024.4 |
| 20260510003858 | 82 | 82 | 1.0 | 1.0 | 0.00 | 0.22 | 0.22 | 68 | 1024.4 |
| 20260510003355 | 82 | 58 | 0.0 | 1.0 | 0.00 | 0.22 | 0.22 | 68 | 1024.3 |
| 20260510002854 | 82 | 59 | 1.0 | 1.0 | 0.00 | 0.22 | 0.22 | 67 | 1024.1 |
| 20260510002352 | 82 | 60 | 0.0 | 0.0 | 0.00 | 0.22 | 0.22 | 68 | 1024.3 |
| 20260510001848 | 82 | 64 | 0.0 | 1.0 | 0.00 | 0.22 | 0.22 | 68 | 1024.4 |
| 20260510001346 | 81 | 69 | 1.0 | 1.0 | 0.00 | 0.22 | 0.22 | 67 | 1024.3 |
| 20260510000842 | 82 | 61 | 1.0 | 2.0 | 0.00 | 0.22 | 0.22 | 66 | 1024.3 |
| 20260510000341 | 82 | 79 | 1.0 | 1.0 | 0.00 | 0.22 | 0.22 | 64 | 1024.1 |
| 20260509235836 | 82 | 50 | 0.0 | 1.0 | 0.00 | 0.22 | 0.22 | 63 | 1024.3 |
| 20260509235333 | 82 | 49 | 1.0 | 1.0 | 0.00 | 0.22 | 0.22 | 64 | 1024.0 |
| 20260509234828 | 80 | 74 | 1.0 | 2.0 | 0.00 | 0.22 | 0.22 | 65 | 1023.9 |
| 20260509234326 | 80 | 52 | 1.0 | 2.0 | 0.00 | 0.22 | 0.22 | 69 | 1024.0 |
| 20260509233824 | 79 | 66 | 0.0 | 1.0 | 0.00 | 0.22 | 0.22 | 70 | 1024.0 |
| 20260509233321 | 79 | 56 | 0.0 | 0.0 | 0.00 | 0.22 | 0.22 | 68 | 1024.0 |
| 20260509232816 | 79 | 298 | 1.0 | 2.0 | 0.00 | 0.22 | 0.22 | 67 | 1023.9 |
| 20260509232314 | 79 | 72 | 0.0 | 0.0 | 0.00 | 0.22 | 0.22 | 67 | 1024.0 |
| 20260509231810 | 79 | 116 | 1.0 | 1.0 | 0.00 | 0.22 | 0.22 | 66 | 1023.9 |
| 20260509231308 | 79 | 351 | 0.0 | 1.0 | 0.00 | 0.22 | 0.22 | 63 | 1024.0 |
| 20260509230805 | 79 | 63 | 0.0 | 1.0 | 0.00 | 0.22 | 0.22 | 60 | 1024.0 |
| 20260509230302 | 78 | 66 | 0.0 | 1.0 | 0.00 | 0.22 | 0.22 | 68 | 1023.9 |
| 20260509225757 | 77 | 63 | 2.0 | 2.0 | 0.00 | 0.22 | 0.22 | 65 | 1023.7 |
| 20260509225254 | 76 | 126 | 2.0 | 4.0 | 0.00 | 0.22 | 0.22 | 71 | 1023.7 |
| 20260509224749 | 76 | 58 | 0.0 | 2.0 | 0.00 | 0.22 | 0.22 | 65 | 1023.8 |
| 20260509224247 | 76 | 260 | 3.0 | 6.0 | 0.00 | 0.22 | 0.22 | 66 | 1023.7 |
| 20260509223743 | 76 | 274 | 3.0 | 7.0 | 0.00 | 0.22 | 0.22 | 67 | 1023.5 |
| 20260509223240 | 77 | 294 | 3.0 | 4.0 | 0.07 | 0.22 | 0.22 | 65 | 1023.3 |
| 20260509222737 | 76 | 264 | 5.0 | 6.0 | 0.24 | 0.22 | 0.22 | 72 | 1023.8 |
| 20260509222232 | 80 | 86 | 2.0 | 6.0 | 0.24 | 0.21 | 0.21 | 73 | 1024.3 |
| 20260509221728 | 83 | 235 | 2.0 | 4.0 | 0.00 | 0.17 | 0.17 | 62 | 1024.5 |
| 20260509221225 | 85 | 2 | 4.0 | 6.0 | 0.00 | 0.17 | 0.17 | 56 | 1024.3 |
| 20260509220720 | 86 | 15 | 3.0 | 8.0 | 0.00 | 0.17 | 0.17 | 54 | 1023.7 |
| 20260509220218 | 92 | 59 | 5.0 | 10.0 | 0.00 | 0.17 | 0.17 | 43 | 1024.0 |
| 20260509215713 | 94 | 106 | 2.0 | 2.0 | 0.00 | 0.17 | 0.17 | 44 | 1024.0 |
| 20260509215210 | 95 | 81 | 1.0 | 2.0 | 0.00 | 0.17 | 0.17 | 43 | 1023.8 |
| 20260509214707 | 94 | 36 | 0.0 | 1.0 | 0.00 | 0.17 | 0.17 | 46 | 1023.7 |
| 20260509214204 | 92 | 74 | 0.0 | 1.0 | 0.00 | 0.17 | 0.17 | 47 | 1023.7 |
| 20260509213701 | 92 | 80 | 0.0 | 2.0 | 0.00 | 0.17 | 0.17 | 49 | 1023.9 |
| 20260509213156 | 91 | 181 | 1.0 | 3.0 | 0.00 | 0.17 | 0.17 | 51 | 1023.9 |
| 20260509212654 | 89 | 117 | 1.0 | 1.0 | 0.00 | 0.17 | 0.17 | 52 | 1023.9 |
| 20260509212151 | 89 | 110 | 3.0 | 4.0 | 0.00 | 0.17 | 0.17 | 52 | 1023.9 |
| 20260509211646 | 90 | 79 | 2.0 | 3.0 | 0.00 | 0.17 | 0.17 | 52 | 1023.9 |
| 20260509211143 | 90 | 18 | 2.0 | 2.0 | 0.00 | 0.17 | 0.17 | 50 | 1023.9 |
| 20260509210641 | 91 | 333 | 4.0 | 4.0 | 0.00 | 0.17 | 0.17 | 49 | 1024.1 |
| 20260509210138 | 95 | 68 | 6.0 | 7.0 | 0.00 | 0.17 | 0.17 | 45 | 1023.9 |
| 20260509205633 | 96 | 46 | 0.0 | 2.0 | 0.00 | 0.17 | 0.17 | 43 | 1024.1 |
| 20260509205133 | 100 | 218 | 2.0 | 3.0 | 0.00 | 0.17 | 0.17 | 39 | 1024.3 |
| 20260509204629 | 99 | 75 | 1.0 | 2.0 | 0.00 | 0.17 | 0.17 | 38 | 1024.3 |
| 20260509204125 | 96 | 358 | 1.0 | 2.0 | 0.00 | 0.17 | 0.17 | 41 | 1024.3 |
| 20260509203621 | 95 | 69 | 0.0 | 1.0 | 0.00 | 0.17 | 0.17 | 44 | 1024.4 |
| 20260509203120 | 96 | 115 | 2.0 | 3.0 | 0.00 | 0.17 | 0.17 | 44 | 1024.7 |
| 20260509202620 | 95 | 149 | 1.0 | 3.0 | 0.00 | 0.17 | 0.17 | 44 | 1024.5 |
| 20260509202115 | 96 | 61 | 1.0 | 3.0 | 0.00 | 0.17 | 0.17 | 45 | 1024.6 |
| 20260509201616 | 97 | 132 | 1.0 | 2.0 | 0.00 | 0.17 | 0.17 | 45 | 1024.8 |
| 20260509201114 | 97 | 359 | 1.0 | 1.0 | 0.00 | 0.17 | 0.17 | 42 | 1024.6 |
| 20260509200609 | 96 | 105 | 2.0 | 4.0 | 0.00 | 0.17 | 0.17 | 44 | 1024.7 |
| 20260509200105 | 97 | 76 | 1.0 | 2.0 | 0.00 | 0.17 | 0.17 | 42 | 1024.9 |
| 20260509195601 | 96 | 180 | 1.0 | 2.0 | 0.00 | 0.17 | 0.17 | 45 | 1024.9 |
| 20260509195055 | 94 | 75 | 2.0 | 3.0 | 0.00 | 0.17 | 0.17 | 47 | 1024.8 |
| 20260509194555 | 95 | 260 | 3.0 | 4.0 | 0.00 | 0.17 | 0.17 | 47 | 1025.0 |
| 20260509194053 | 95 | 179 | 2.0 | 2.0 | 0.00 | 0.17 | 0.17 | 47 | 1025.0 |
| 20260509193548 | 97 | 85 | 1.0 | 2.0 | 0.00 | 0.17 | 0.17 | 45 | 1025.2 |
| 20260509193044 | 98 | 34 | 2.0 | 2.0 | 0.00 | 0.17 | 0.17 | 46 | 1025.3 |
| 20260509192541 | 99 | 220 | 1.0 | 2.0 | 0.00 | 0.17 | 0.17 | 42 | 1025.4 |
| 20260509192036 | 98 | 86 | 2.0 | 2.0 | 0.00 | 0.17 | 0.17 | 42 | 1025.5 |
| 20260509191531 | 96 | 93 | 0.0 | 2.0 | 0.00 | 0.17 | 0.17 | 46 | 1025.6 |
| 20260509191027 | 95 | 199 | 1.0 | 2.0 | 0.00 | 0.17 | 0.17 | 47 | 1025.7 |
| 20260509190524 | 97 | 114 | 2.0 | 2.0 | 0.00 | 0.17 | 0.17 | 48 | 1025.7 |
| 20260509190022 | 96 | 46 | 1.0 | 3.0 | 0.00 | 0.17 | 0.17 | 49 | 1025.8 |
| 20260509185519 | 97 | 131 | 0.0 | 3.0 | 0.00 | 0.17 | 0.17 | 47 | 1025.9 |
| 20260509185015 | 95 | 77 | 1.0 | 2.0 | 0.00 | 0.17 | 0.17 | 50 | 1026.0 |
| 20260509184514 | 94 | 111 | 0.0 | 2.0 | 0.00 | 0.17 | 0.17 | 51 | 1025.9 |
| 20260509184010 | 91 | 70 | 0.0 | 2.0 | 0.00 | 0.17 | 0.17 | 54 | 1026.1 |
| 20260509183505 | 89 | 242 | 2.0 | 2.0 | 0.00 | 0.17 | 0.17 | 56 | 1026.0 |
| 20260509183001 | 88 | 90 | 0.0 | 2.0 | 0.00 | 0.17 | 0.17 | 60 | 1026.1 |
| 20260509182458 | 89 | 84 | 1.0 | 3.0 | 0.00 | 0.17 | 0.17 | 58 | 1026.2 |
| 20260509181955 | 92 | 196 | 4.0 | 6.0 | 0.00 | 0.17 | 0.17 | 55 | 1026.1 |
| 20260509181453 | 91 | 114 | 1.0 | 1.0 | 0.00 | 0.17 | 0.17 | 55 | 1026.2 |
| 20260509180950 | 87 | 164 | 2.0 | 3.0 | 0.00 | 0.17 | 0.17 | 60 | 1026.2 |
| 20260509180445 | 89 | 305 | 3.0 | 6.0 | 0.00 | 0.17 | 0.17 | 60 | 1026.4 |
| 20260509175943 | 90 | 82 | 1.0 | 3.0 | 0.00 | 0.17 | 0.17 | 58 | 1026.5 |
| 20260509175439 | 89 | 265 | 2.0 | 2.0 | 0.00 | 0.17 | 0.17 | 59 | 1026.4 |
| 20260509174935 | 88 | 248 | 2.0 | 2.0 | 0.00 | 0.17 | 0.17 | 61 | 1026.4 |
| 20260509174431 | 88 | 80 | 1.0 | 4.0 | 0.00 | 0.17 | 0.17 | 61 | 1026.7 |
| 20260509173927 | 89 | 73 | 0.0 | 1.0 | 0.00 | 0.17 | 0.17 | 61 | 1026.5 |
| 20260509173426 | 87 | 80 | 1.0 | 1.0 | 0.00 | 0.17 | 0.17 | 62 | 1026.6 |
| 20260509172924 | 86 | 78 | 1.0 | 3.0 | 0.00 | 0.17 | 0.17 | 64 | 1026.9 |
| 20260509172421 | 90 | 264 | 4.0 | 4.0 | 0.00 | 0.17 | 0.17 | 58 | 1026.7 |
| 20260509171916 | 89 | 141 | 2.0 | 2.0 | 0.00 | 0.17 | 0.17 | 61 | 1026.8 |
| 20260509171412 | 86 | 88 | 1.0 | 2.0 | 0.00 | 0.17 | 0.17 | 64 | 1026.9 |
| 20260509170909 | 86 | 145 | 2.0 | 3.0 | 0.00 | 0.17 | 0.17 | 63 | 1026.8 |
| 20260509170404 | 87 | 252 | 1.0 | 2.0 | 0.00 | 0.17 | 0.17 | 63 | 1026.8 |
| 20260509165900 | 90 | 264 | 3.0 | 3.0 | 0.00 | 0.17 | 0.17 | 59 | 1027.0 |
| 20260509165354 | 89 | 158 | 0.0 | 1.0 | 0.00 | 0.17 | 0.17 | 60 | 1026.9 |
| 20260509164851 | 89 | 81 | 0.0 | 1.0 | 0.00 | 0.17 | 0.17 | 61 | 1027.0 |
| 20260509164346 | 87 | 129 | 1.0 | 2.0 | 0.00 | 0.17 | 0.17 | 63 | 1027.1 |
| 20260509163843 | 84 | 82 | 1.0 | 1.0 | 0.00 | 0.17 | 0.17 | 65 | 1027.2 |
| 20260509163340 | 82 | 130 | 0.0 | 1.0 | 0.00 | 0.17 | 0.17 | 71 | 1027.1 |
| 20260509162839 | 82 | 113 | 1.0 | 1.0 | 0.00 | 0.17 | 0.17 | 76 | 1027.0 |
| 20260509162338 | 80 | 78 | 0.0 | 1.0 | 0.00 | 0.17 | 0.17 | 80 | 1026.9 |
| 20260509161834 | 79 | 78 | 0.0 | 3.0 | 0.00 | 0.17 | 0.17 | 83 | 1027.0 |
| 20260509161330 | 78 | 75 | 0.0 | 1.0 | 0.00 | 0.17 | 0.17 | 88 | 1027.0 |
| 20260509160826 | 78 | 279 | 3.0 | 4.0 | 0.00 | 0.17 | 0.17 | 86 | 1026.9 |
| 20260509160322 | 78 | 246 | 2.0 | 6.0 | 0.00 | 0.17 | 0.17 | 86 | 1026.8 |
| 20260509155818 | 77 | 226 | 3.0 | 3.0 | 0.00 | 0.17 | 0.17 | 89 | 1026.9 |
| 20260509155314 | 76 | 58 | 2.0 | 7.0 | 0.00 | 0.17 | 0.17 | 90 | 1026.9 |
| 20260509154810 | 77 | 191 | 3.0 | 6.0 | 0.00 | 0.17 | 0.17 | 90 | 1027.0 |
| 20260509154307 | 76 | 250 | 3.0 | 3.0 | 0.00 | 0.17 | 0.17 | 92 | 1026.5 |
| 20260509153804 | 75 | 51 | 2.0 | 2.0 | 0.00 | 0.17 | 0.17 | 94 | 1026.6 |
| 20260509153300 | 75 | 314 | 2.0 | 3.0 | 0.00 | 0.17 | 0.17 | 94 | 1026.7 |
| 20260509152757 | 75 | 272 | 3.0 | 4.0 | 0.00 | 0.17 | 0.17 | 94 | 1026.8 |
| 20260509152253 | 75 | 275 | 4.0 | 7.0 | 0.00 | 0.17 | 0.17 | 93 | 1027.1 |
| 20260509151751 | 76 | 349 | 1.0 | 2.0 | 0.00 | 0.17 | 0.17 | 95 | 1027.1 |
| 20260509151247 | 75 | 104 | 1.0 | 1.0 | 0.00 | 0.17 | 0.17 | 96 | 1027.3 |
| 20260509150746 | 75 | 91 | 0.0 | 0.0 | 0.00 | 0.17 | 0.17 | 96 | 1027.2 |
| 20260509150244 | 74 | 311 | 1.0 | 2.0 | 0.00 | 0.17 | 0.17 | 96 | 1027.4 |
| 20260509145740 | 74 | 72 | 0.0 | 1.0 | 0.00 | 0.17 | 0.17 | 96 | 1027.4 |
| 20260509145240 | 74 | 68 | 0.0 | 0.0 | 0.31 | 0.17 | 0.17 | 96 | 1027.6 |
| 20260509144737 | 74 | 65 | 0.0 | 0.0 | 0.71 | 0.17 | 0.17 | 96 | 1027.6 |
| 20260509144234 | 73 | 74 | 0.0 | 1.0 | 0.59 | 0.10 | 0.10 | 96 | 1027.7 |
| 20260509143731 | 73 | 78 | 0.0 | 0.0 | 0.19 | 0.03 | 0.03 | 96 | 1027.6 |
| 20260509143228 | 73 | 68 | 0.0 | 0.0 | 0.00 | 0.00 | 0.00 | 96 | 1027.6 |
| 20260509142724 | 73 | 64 | 0.0 | 0.0 | 0.00 | 0.00 | 0.00 | 96 | 1027.7 |
| 20260509142220 | 73 | 73 | 0.0 | 0.0 | 0.00 | 0.00 | 0.00 | 96 | 1027.6 |
| 20260509141716 | 73 | 63 | 0.0 | 0.0 | 0.00 | 0.00 | 0.00 | 96 | 1027.5 |
| 20260509141214 | 73 | 68 | 0.0 | 1.0 | 0.00 | 0.00 | 0.00 | 96 | 1027.3 |
| 20260509140709 | 73 | 59 | 1.0 | 1.0 | 0.00 | 0.00 | 0.00 | 96 | 1027.2 |
| 20260509140207 | 73 | 50 | 0.0 | 0.0 | 0.00 | 0.00 | 0.00 | 96 | 1027.0 |
| 20260509135705 | 73 | 54 | 0.0 | 0.0 | 0.00 | 0.00 | 0.00 | 96 | 1026.6 |
| 20260509135203 | 73 | 56 | 1.0 | 2.0 | 0.00 | 0.00 | 0.00 | 96 | 1026.7 |
| 20260509134658 | 73 | 67 | 0.0 | 0.0 | 0.00 | 0.00 | 0.00 | 96 | 1026.6 |
| 20260509134156 | 73 | 48 | 1.0 | 2.0 | 0.00 | 0.00 | 0.00 | 96 | 1026.6 |
| 20260509133653 | 73 | 53 | 1.0 | 2.0 | 0.00 | 0.00 | 0.00 | 96 | 1026.7 |
| 20260509133150 | 73 | 57 | 0.0 | 1.0 | 0.00 | 0.00 | 0.00 | 96 | 1026.8 |
| 20260509132649 | 73 | 45 | 0.0 | 1.0 | 0.00 | 0.00 | 0.00 | 96 | 1026.9 |
| 20260509132147 | 73 | 50 | 0.0 | 0.0 | 0.00 | 0.00 | 0.00 | 96 | 1026.8 |
| 20260509131643 | 73 | 51 | 0.0 | 1.0 | 0.00 | 0.00 | 0.00 | 96 | 1026.6 |
| 20260509131140 | 73 | 58 | 1.0 | 1.0 | 0.00 | 0.00 | 0.00 | 96 | 1026.5 |
| 20260509130635 | 73 | 55 | 1.0 | 1.0 | 0.00 | 0.00 | 0.00 | 96 | 1026.3 |
| 20260509130132 | 73 | 103 | 0.0 | 2.0 | 0.00 | 0.00 | 0.00 | 96 | 1026.6 |
| 20260509125629 | 73 | 59 | 1.0 | 1.0 | 0.00 | 0.00 | 0.00 | 96 | 1026.4 |
| 20260509125125 | 73 | 71 | 0.0 | 0.0 | 0.00 | 0.00 | 0.00 | 96 | 1026.6 |
| 20260509124622 | 73 | 71 | 0.0 | 1.0 | 0.00 | 0.00 | 0.00 | 96 | 1026.8 |
| 20260509124119 | 73 | 68 | 0.0 | 1.0 | 0.00 | 0.00 | 0.00 | 96 | 1026.7 |
| 20260509123617 | 73 | 81 | 2.0 | 2.0 | 0.00 | 0.00 | 0.00 | 97 | 1026.7 |
| 20260509123113 | 73 | 65 | 0.0 | 0.0 | 0.00 | 0.00 | 0.00 | 96 | 1026.7 |
| 20260509122609 | 73 | 72 | 0.0 | 0.0 | 0.00 | 0.00 | 0.00 | 96 | 1026.8 |
| 20260509122107 | 72 | 49 | 0.0 | 1.0 | 0.00 | 0.00 | 0.00 | 96 | 1026.9 |
| 20260509121603 | 72 | 58 | 0.0 | 2.0 | 0.00 | 0.00 | 0.00 | 96 | 1026.9 |
| 20260509121101 | 72 | 56 | 1.0 | 1.0 | 0.00 | 0.00 | 0.00 | 96 | 1026.9 |
| 20260509120559 | 72 | 67 | 0.0 | 1.0 | 0.00 | 0.00 | 0.00 | 96 | 1027.1 |
| 20260509120057 | 72 | 37 | 0.0 | 1.0 | 0.00 | 0.00 | 0.00 | 96 | 1027.0 |
| 20260509115553 | 72 | 35 | 1.0 | 2.0 | 0.00 | 0.00 | 0.00 | 96 | 1027.1 |
| 20260509115051 | 72 | 56 | 0.0 | 3.0 | 0.00 | 0.00 | 0.00 | 96 | 1027.3 |
| 20260509114549 | 73 | 40 | 1.0 | 1.0 | 0.00 | 0.00 | 0.00 | 96 | 1027.2 |
| 20260509114048 | 73 | 75 | 0.0 | 2.0 | 0.00 | 0.00 | 0.00 | 96 | 1027.1 |
| 20260509113546 | 73 | 46 | 1.0 | 2.0 | 0.00 | 0.00 | 0.00 | 96 | 1026.9 |
| 20260509113043 | 73 | 24 | 1.0 | 3.0 | 0.00 | 0.00 | 0.00 | 96 | 1026.8 |
| 20260509112539 | 72 | 39 | 1.0 | 2.0 | 0.00 | 0.00 | 0.00 | 96 | 1026.8 |
| 20260509112036 | 72 | 14 | 1.0 | 2.0 | 0.00 | 0.00 | 0.00 | 96 | 1026.7 |
| 20260509111534 | 72 | 47 | 1.0 | 2.0 | 0.00 | 0.00 | 0.00 | 96 | 1026.4 |
| 20260509111031 | 72 | 46 | 1.0 | 1.0 | 0.00 | 0.00 | 0.00 | 96 | 1026.0 |
| 20260509110527 | 72 | 52 | 0.0 | 1.0 | 0.00 | 0.00 | 0.00 | 96 | 1026.2 |
| 20260509110025 | 72 | 68 | 0.0 | 1.0 | 0.00 | 0.00 | 0.00 | 96 | 1026.0 |
| 20260509105523 | 72 | 66 | 0.0 | 2.0 | 0.00 | 0.00 | 0.00 | 96 | 1025.9 |
| 20260509105020 | 72 | 40 | 1.0 | 1.0 | 0.00 | 0.00 | 0.00 | 96 | 1025.9 |
| 20260509104517 | 72 | 29 | 0.0 | 1.0 | 0.00 | 0.00 | 0.00 | 96 | 1026.1 |
| 20260509104014 | 72 | 55 | 0.0 | 0.0 | 0.00 | 0.00 | 0.00 | 96 | 1026.1 |
| 20260509103512 | 73 | 70 | 0.0 | 0.0 | 0.00 | 0.00 | 0.00 | 96 | 1026.3 |
| 20260509103010 | 73 | 40 | 2.0 | 3.0 | 0.00 | 0.00 | 0.00 | 96 | 1026.5 |
| 20260509102507 | 73 | 63 | 0.0 | 1.0 | 0.00 | 0.00 | 0.00 | 96 | 1026.5 |
| 20260509102003 | 73 | 64 | 0.0 | 1.0 | 0.00 | 0.00 | 0.00 | 96 | 1026.6 |
| 20260509101459 | 73 | 62 | 0.0 | 1.0 | 0.00 | 0.00 | 0.00 | 96 | 1026.2 |
| 20260509100957 | 73 | 62 | 1.0 | 2.0 | 0.00 | 0.00 | 0.00 | 96 | 1026.3 |
| 20260509100454 | 73 | 58 | 0.0 | 1.0 | 0.00 | 0.00 | 0.00 | 96 | 1026.2 |
| 20260509095950 | 73 | 50 | 2.0 | 3.0 | 0.00 | 0.00 | 0.00 | 95 | 1026.0 |
| 20260509095447 | 73 | 69 | 0.0 | 1.0 | 0.00 | 0.00 | 0.00 | 95 | 1026.2 |
| 20260509094945 | 73 | 48 | 1.0 | 1.0 | 0.00 | 0.00 | 0.00 | 95 | 1026.3 |
| 20260509094441 | 73 | 79 | 1.0 | 2.0 | 0.00 | 0.00 | 0.00 | 95 | 1026.4 |
| 20260509093939 | 73 | 83 | 1.0 | 1.0 | 0.00 | 0.00 | 0.00 | 95 | 1026.2 |
| 20260509093436 | 73 | 51 | 1.0 | 1.0 | 0.00 | 0.00 | 0.00 | 95 | 1026.0 |
| 20260509092934 | 73 | 57 | 1.0 | 1.0 | 0.00 | 0.00 | 0.00 | 95 | 1025.8 |
| 20260509092431 | 73 | 51 | 1.0 | 1.0 | 0.00 | 0.00 | 0.00 | 95 | 1025.5 |
| 20260509091930 | 73 | 65 | 0.0 | 0.0 | 0.00 | 0.00 | 0.00 | 94 | 1025.7 |
| 20260509091426 | 73 | 68 | 0.0 | 1.0 | 0.00 | 0.00 | 0.00 | 94 | 1025.7 |
| 20260509090924 | 73 | 64 | 0.0 | 0.0 | 0.00 | 0.00 | 0.00 | 94 | 1025.7 |
| 20260509090421 | 73 | 74 | 0.0 | 0.0 | 0.00 | 0.00 | 0.00 | 94 | 1025.7 |
| 20260509085919 | 73 | 79 | 0.0 | 0.0 | 0.00 | 0.00 | 0.00 | 94 | 1025.5 |
| 20260509085415 | 73 | 72 | 0.0 | 0.0 | 0.00 | 0.00 | 0.00 | 94 | 1025.3 |
| 20260509084911 | 73 | 95 | 1.0 | 1.0 | 0.00 | 0.00 | 0.00 | 94 | 1025.4 |
| 20260509084408 | 73 | 74 | 0.0 | 0.0 | 0.00 | 0.00 | 0.00 | 94 | 1025.4 |
| 20260509083906 | 73 | 83 | 0.0 | 0.0 | 0.00 | 0.00 | 0.00 | 94 | 1025.6 |
| 20260509083403 | 73 | 42 | 0.0 | 1.0 | 0.00 | 0.00 | 0.00 | 93 | 1025.5 |